logo tempoitalia

Diretta Meteo Umtata, Sud Africalunedì 31 agosto ore 07:00

Mappa
Sereno 12 °C Sereno 24 Ore: T.min 12 T.max 19
Ponente Nord Km/h 1.8 Punto di rugiada: 12 °C Umidità: 100% Visibilità: 0 Km
Il sole sorge alle: 06:22 Il sole tramonta alle: 17:48
31 Agosto 2026 07:00 tempo osservato: Sereno Sereno 12 100 1023 vento: Nord N 1.8
31 Agosto 2026 06:00 tempo osservato: Sereno Sereno 12 100 1023 vento: Nord N 1.8
31 Agosto 2026 05:00 tempo osservato: Sereno Sereno 12 93 1023 vento: Nord N 3.7
31 Agosto 2026 04:00 tempo osservato: Sereno Sereno 12 93 1022 vento: Nord N 3.7
31 Agosto 2026 03:00 tempo osservato: Sereno Sereno 12 100 1023 vento: Nord N 5.5
31 Agosto 2026 02:00 tempo osservato: Sereno Sereno 12 100 1023 vento: Nord N 1.8
31 Agosto 2026 01:00 tempo osservato: Sereno Sereno 12 93 1023 vento: Nord N 0
31 Agosto 2026 00:00 tempo osservato: Sereno Sereno 12 100 1023 vento: Nord N 5.5
30 Agosto 2026 23:00 tempo osservato: Sereno Sereno 12 100 1023 vento: Nord S 11.1
30 Agosto 2026 22:00 tempo osservato: Sereno Sereno 12 100 1023 vento: Nord S 9.3
30 Agosto 2026 21:00 tempo osservato: Sereno Sereno 12 100 1023 vento: Nord S 11.1
30 Agosto 2026 20:00 tempo osservato: Sereno Sereno 13 93 1023 vento: Nord S 14.8
30 Agosto 2026 19:00 tempo osservato: Sereno Sereno 14 93 1022 vento: Nord SE 18.5
30 Agosto 2026 18:00 tempo osservato: Sereno Sereno 14 87 1021 vento: Nord S/SE 11.1
30 Agosto 2026 17:00 tempo osservato: Sereno Sereno 16 77 1021 vento: Nord SE 14.8
30 Agosto 2026 16:00 tempo osservato: Sereno Sereno 17 72 1021 vento: Nord S/SE 16.7
30 Agosto 2026 15:00 tempo osservato: Sereno Sereno 17 72 1021 vento: Nord SE 18.5
30 Agosto 2026 14:00 tempo osservato: Sereno Sereno 18 67 1021 vento: Nord S 16.7
30 Agosto 2026 13:00 tempo osservato: Sereno Sereno 19 59 1021 vento: Nord S/SE 9.3
30 Agosto 2026 12:00 tempo osservato: Molto Nuvoloso Molto Nuvoloso 18 63 1022 vento: Nord S/SE 11.1
30 Agosto 2026 11:00 tempo osservato: Sereno Sereno 18 63 1022 vento: Nord N 0
30 Agosto 2026 10:00 tempo osservato: Sereno Sereno 17 67 1022 vento: Nord N/NE 11.1
30 Agosto 2026 09:00 tempo osservato: Sereno Sereno 16 67 1022 vento: Nord N 98.1
30 Agosto 2026 08:00 tempo osservato: Sereno Sereno 14 82 1022 vento: Nord N 5.5